Weather History for KMFI - November, 2011

Change the Weather History Date:

Monday, November 14, 2011

  Actual Average Record
Temperature  
Mean Temperature 40 °F -  
Max Temperature 48 °F 40 °F 68 °F (1990)
Min Temperature 32 °F 23 °F 1 °F (1959)
Degree Days  
Heating Degree Days 25    
Moisture  
Dew Point 31 °F    
Average Humidity 71    
Maximum Humidity 88    
Minimum Humidity 55    
Precipitation  
Precipitation 0.01 in - - ()
Sea Level Pressure  
Sea Level Pressure 29.54 in    
Wind  
Wind Speed 7 mph (SW)    
Max Wind Speed 14 mph    
Max Gust Speed -    
Visibility 10 miles    
Events Rain    
Averages and records for this station are not official NWS values.
T = Trace of Precipitation, MM = Missing Value Source: NWS Daily Summary

Daily Weather History Graph

Daily Weather History Graph

Search for Another Location

Airport or City:

Trip Planner

Search our weather history database for the weather conditions in past years. The results will help you decide how hot, cold, wet, or windy it might be!

Date:

Astronomy

Nov. 14, 2011 Rise Set
Actual Time 6:55 AM CST 4:34 PM CST
Civil Twilight 6:24 AM CST 5:05 PM CST
Nautical Twilight 5:49 AM CST 5:40 PM CST
Astronomical Twilight 5:14 AM CST 6:15 PM CST
Moon 7:38 PM CST (11/14) 10:17 AM CST (11/14)
Length of Visible Light 10h 41m
Length of Day
9h 38m
Waning Gibbous, 86% of the Moon is Illuminated
Nov 14
Waning Gibbous
Nov 18
Last Quarter
Nov 25
New
Dec 2
First Quarter
Dec 10
Full

Hourly Weather History & Observations

Time (CST) Temp. Windchill Dew Point Humidity Pressure Visibility Wind Dir Wind Speed Gust Speed Precip Events Conditions
12:54 AM 35.1 °F 31.0 °F 28.9 °F 78% 29.53 in 10.0 mi SW 4.6 mph - N/A   Clear
1:54 AM 34.0 °F 28.0 °F 28.9 °F 82% 29.54 in 10.0 mi SSW 6.9 mph - N/A   Clear
2:54 AM 33.1 °F 26.1 °F 28.9 °F 85% 29.53 in 10.0 mi SSW 8.1 mph - N/A   Clear
3:54 AM 34.0 °F 28.8 °F 28.9 °F 82% 29.52 in 10.0 mi South 5.8 mph - N/A   Clear
6:54 AM 32.0 °F 28.7 °F 28.9 °F 88% 29.52 in 10.0 mi South 3.5 mph - N/A   Clear
7:54 AM 35.1 °F 29.3 °F 30.9 °F 85% 29.52 in 10.0 mi South 6.9 mph - N/A   Clear
8:54 AM 36.0 °F 30.3 °F 32.0 °F 86% 29.54 in 10.0 mi South 6.9 mph - N/A   Clear
9:54 AM 42.1 °F 36.6 °F 33.1 °F 70% 29.53 in 10.0 mi SSW 9.2 mph - N/A   Partly Cloudy
10:54 AM 45.0 °F 39.7 °F 34.0 °F 65% 29.52 in 10.0 mi SSW 10.4 mph - N/A   Overcast
11:54 AM 46.0 °F 41.4 °F 34.0 °F 63% 29.51 in 10.0 mi SW 9.2 mph - N/A   Overcast
12:54 PM 44.1 °F 40.8 °F 39.0 °F 82% 29.48 in 10.0 mi South 5.8 mph - 0.01 in Rain Light Rain
1:54 PM 45.0 °F 38.5 °F 39.0 °F 80% 29.47 in 10.0 mi South 13.8 mph - 0.00 in   Mostly Cloudy
2:54 PM 48.0 °F - 41.0 °F 77% 29.47 in 10.0 mi South 8.1 mph - N/A   Partly Cloudy
3:54 PM 48.0 °F - 41.0 °F 77% 29.47 in 10.0 mi Calm Calm - N/A   Partly Cloudy
4:54 PM 48.0 °F - 37.0 °F 66% 29.49 in 10.0 mi WSW 10.4 mph - N/A   Clear
5:54 PM 46.0 °F 41.4 °F 33.1 °F 61% 29.53 in 10.0 mi West 9.2 mph - N/A   Clear
6:54 PM 43.0 °F 38.2 °F 28.0 °F 56% 29.57 in 10.0 mi West 8.1 mph - N/A   Clear
7:54 PM 41.0 °F 35.8 °F 26.1 °F 55% 29.60 in 10.0 mi West 8.1 mph - N/A   Clear
8:54 PM 39.9 °F 34.5 °F 26.1 °F 58% 29.62 in 10.0 mi West 8.1 mph - N/A   Clear
9:54 PM 39.9 °F 33.9 °F 25.0 °F 55% 29.63 in 10.0 mi West 9.2 mph - N/A   Clear
10:54 PM 39.0 °F 33.4 °F 25.0 °F 57% 29.65 in 10.0 mi WSW 8.1 mph - N/A   Clear
11:54 PM 37.9 °F 32.7 °F 24.1 °F 57% 29.67 in 10.0 mi West 6.9 mph - N/A   Clear